Weather Roundup
Issued by NWS Corpus Christi, TX

Home | Current Version | Previous Version | Text Only | Print | Product List | Glossary On
Versions: 1 2 3 4 5 6 7 8 9 10 11 12 13 14 15 16 17 18 19 20 21 22 23 24 25 26 27 28 29 30 31 32 33 34 35 36 37 38 39 40 41 42 43 44 45 46 47 48 49 50
000
ASUS44 KCRP 280010
HRRCRP

SOUTH TEXAS REGIONAL WEATHER ROUNDUP
NATIONAL WEATHER SERVICE CORPUS CHRISTI TX
700 PM CDT TUE JUN 27 2017


TXZ229>244-280100-
...CORPUS CHRISTI AREA OBSERVATIONS...

CITY           SKY/WX    TMP DP  RH WIND       PRES   REMARKS
CORPUS CHRISTI PTSUNNY   87  72  60 E15       29.88F HX  93
NAS CORPUS CHR PTSUNNY   84  74  71 E13       29.88F HX  91
ROCKPORT       MOSUNNY   83  72  69 E12       29.89S
KINGSVILLE NAS MOSUNNY   85  74  69 NE13      29.87F HX  92
ALICE          MOSUNNY   85  69  58 E14G23    29.88S
ORANGE GROVE   PTSUNNY   87  71  58 E16       29.89F HX  93
FALFURRIAS     SUNNY     85  70  60 E16       29.86S
$$

...VICTORIA AREA OBSERVATIONS...

CITY           SKY/WX    TMP DP  RH WIND       PRES   REMARKS
VICTORIA       CLOUDY    75  73  93 N7        29.92F
BEEVILLE       FAIR      81  74  78 NE9       29.90F
PLEASANTON     MOSUNNY   76  73  87 E7        29.93S
SAN ANTONIO    CLOUDY    77  70  79 E13       29.96R
$$

...LAREDO AREA OBSERVATIONS...

CITY           SKY/WX    TMP DP  RH WIND       PRES   REMARKS
LAREDO         MOSUNNY   86  71  60 E16       29.86F HX  91
COTULLA        MOSUNNY   86  70  58 E12       29.88F HX  90
DEL RIO        MOSUNNY   90  66  45 SE13      29.86F HX  92
MCALLEN        PTSUNNY   89  73  59 E15       29.82F HX  97
HEBBRONVILLE   MOSUNNY   83  68  60 E16G23    29.88F
$$

...OTHER TEXAS OBSERVATIONS...

CITY           SKY/WX    TMP DP  RH WIND       PRES   REMARKS
BROWNSVILLE    CLOUDY    83  76  79 E12       29.82F HX  91
HOUSTON        PTSUNNY   83  72  69 SE10      29.93F
COL. STATION   MOSUNNY   83  73  72 SE8       29.94S
AUSTIN         PTSUNNY   79  70  74 SW6       29.94F
WACO           MOSUNNY   87  72  60 S18       29.92S HX  93
FORT WORTH     PTSUNNY   77  72  84 SE5       29.90F
WICHITA FALLS  MOSUNNY   88  68  51 SE12      29.89F HX  91
LUBBOCK        PTSUNNY   89  54  30 S16       29.94F
EL PASO        MOSUNNY   95  51  22 SE7       29.93F HX  92
$$

...MARINE OBSERVATIONS...

STATION/POSITION TIME  SKY/WX   TEMP    WIND        PRES    VSBY  WAVE   SWELL
                                AIR SEA DIR/SP/G                  HT/PER HT/PER
                 (UTC)          (F)     (DEG/KT/KT) (MB)    (MI)  (FT/S) (FT/S)
PORT ARANSAS     2300            81 85   50/  7/  9 1012.8S
BUOY 90 E PORT A 2350            81 84   90/ 16/ 17 1011.8F         3/ 6
BUOY 45 SE BAFFI 2250            80      60/ 10/ 10 1011.2          3/ 5   2/ 5
BUOY 200 E PT IS 2350            78 84  120/ 12/ 16 1012.5F         2/ 5   2/11
BUOY 15 E GALVES 2350            80 83  120/ 14/ 16 1013.3R         2/ 5
$$




USA.gov is the U.S. government's official web portal to all federal, state and local government web resources and services.